Theta_e
324 326 328 327 328 328 327 327 326 324 323 322 322 322 323 323 324 325 325 324 324 324 324 324 325 325 325 325 324 323 323 324 324 324 324 324 324 324 323 324 327 323 316 316 318 314 312 312 312 312 312 315 318 320 319 321 326 326 328 326 326 331 328 328 325 322 323 321 319 319 319 321 319 318 316 316 318 317 320 325 328 333 336 336 335 334 335 336
320 324 327 328 327 328 327 327 326 324 323 323 321 321 322 323 323 324 324 324 324 324 324 323 323 324 324 325 324 323 324 324 324 324 324 324 324 324 325 325 327 322 316 319 320 314 313 311 311 311 312 316 319 319 320 321 321 327 330 324 331 336 324 320 321 320 322 319 319 319 319 320 320 318 316 317 317 317 318 319 327 339 338 336 335 335 335 335
318 322 325 327 328 327 327 326 326 324 323 322 321 321 321 323 324 323 323 324 324 325 324 323 323 323 325 325 325 325 324 325 325 326 325 324 325 325 326 326 326 323 320 324 322 317 315 313 310 311 313 314 318 320 320 321 320 326 326 324 336 334 319 317 316 319 320 319 319 318 318 319 319 318 316 318 318 317 317 319 327 338 339 339 335 334 335 334
317 321 323 326 327 327 326 326 326 325 323 322 322 321 321 322 324 324 324 324 324 325 325 324 324 324 325 325 325 325 325 326 327 326 325 325 325 324 326 326 326 324 321 324 325 321 318 314 310 311 312 313 317 320 320 321 320 322 320 325 334 324 318 318 315 318 319 319 319 318 319 319 317 316 317 318 317 317 316 319 324 333 337 339 336 334 334 334
317 321 324 325 326 327 326 326 325 325 323 322 322 322 321 322 323 325 325 324 324 324 325 324 324 324 325 325 326 325 326 330 329 325 324 325 324 325 325 325 326 324 319 322 324 321 316 312 311 312 312 312 316 318 319 321 320 319 319 323 325 319 319 317 316 317 316 318 318 318 319 318 316 315 317 317 318 318 316 316 319 328 336 337 335 334 333 334
317 320 324 325 326 327 326 326 325 325 323 322 323 322 322 322 323 325 325 325 325 324 325 324 324 325 325 325 325 325 327 331 327 321 324 325 324 325 324 325 326 321 319 324 324 319 314 311 311 312 312 312 316 317 318 319 318 320 320 321 319 319 319 316 317 317 316 318 318 318 317 316 316 315 316 316 318 318 316 316 315 323 333 336 334 334 334 333
318 318 322 325 325 326 326 326 325 324 323 322 323 323 323 322 322 324 325 326 325 325 325 325 325 325 325 325 325 325 326 328 324 318 322 325 325 325 324 326 325 321 321 325 323 316 312 311 311 312 312 312 314 315 315 317 317 319 319 319 317 318 318 316 316 316 317 318 317 317 316 316 317 316 316 315 317 316 316 318 314 319 331 335 334 334 333 333
318 316 319 324 326 326 326 325 325 324 323 323 323 323 323 323 323 324 325 326 325 325 325 325 326 325 325 325 324 325 325 326 325 319 321 326 326 325 325 325 324 324 325 326 322 314 312 314 312 310 311 312 313 314 313 314 316 318 318 318 316 315 316 315 316 317 317 317 316 317 317 317 316 316 315 315 317 315 317 322 319 321 331 335 335 335 333 332
318 316 315 322 326 325 325 325 325 324 323 323 323 323 323 323 323 324 325 325 325 325 325 325 325 325 326 325 324 326 326 324 324 319 320 327 326 325 326 325 325 326 326 325 320 314 314 316 312 310 311 311 312 312 313 315 316 317 317 318 317 315 314 314 316 316 316 316 316 318 317 316 315 314 316 317 316 315 320 328 326 326 332 335 335 334 332 332
319 317 314 321 326 325 325 325 324 324 323 323 323 322 322 323 323 324 325 325 325 325 325 325 325 325 325 324 324 327 326 323 324 319 317 325 327 326 326 325 326 326 323 320 316 312 312 314 312 311 311 311 312 311 314 315 316 316 317 318 317 315 314 315 315 314 316 316 316 318 316 315 315 314 317 318 316 317 323 327 327 328 330 332 333 332 331 331
319 318 316 320 325 325 325 325 324 324 323 323 323 322 322 323 323 324 324 325 325 324 324 324 325 325 324 323 325 326 323 321 324 319 316 322 326 326 326 325 324 324 321 316 313 312 311 311 311 312 311 311 311 312 315 315 315 316 317 317 315 315 315 314 315 315 316 315 315 318 316 314 316 316 318 318 316 318 323 323 324 328 329 329 331 331 329 330
319 319 318 320 323 324 324 324 324 323 323 323 322 322 322 323 324 323 324 324 324 324 323 323 324 324 323 322 323 323 320 320 322 317 314 317 324 326 326 324 319 319 318 313 312 313 313 312 311 312 312 312 311 311 313 314 315 317 316 316 315 314 315 315 315 315 315 315 315 316 315 315 317 317 318 317 315 317 321 321 321 324 325 327 329 330 329 329
319 319 319 321 322 323 324 324 323 323 323 322 322 322 322 322 323 323 323 323 323 323 322 322 323 323 321 320 321 319 318 319 318 314 314 316 322 325 325 323 319 317 315 312 313 315 315 313 311 312 312 312 311 310 312 313 314 316 315 317 316 314 315 317 315 315 316 315 315 314 314 318 319 317 316 316 315 315 319 320 320 319 320 322 325 328 328 327
319 319 319 321 323 323 324 323 323 323 323 322 322 322 322 323 323 322 323 322 322 322 322 322 322 320 320 319 317 316 317 318 316 313 315 317 319 320 322 322 321 317 313 312 315 315 315 313 312 312 312 312 312 311 313 313 315 316 315 316 319 317 318 318 315 316 316 314 315 313 314 319 320 318 315 316 316 315 317 317 317 318 317 318 321 324 327 325
319 318 318 321 324 323 323 323 323 323 322 322 322 322 322 322 322 322 322 321 321 321 321 320 319 319 320 318 314 315 317 319 318 315 315 316 316 316 316 318 317 314 311 313 316 315 314 313 311 311 311 312 312 312 313 313 314 314 314 316 317 317 320 319 315 316 316 315 314 313 314 317 318 317 315 315 316 316 317 316 315 317 317 317 318 321 325 325
319 318 318 321 323 323 323 322 323 322 322 322 322 322 322 321 322 321 320 320 320 321 320 319 318 319 320 317 314 314 316 318 318 316 315 314 314 313 313 313 313 312 312 313 314 314 313 313 312 312 312 312 312 313 313 313 314 313 316 320 319 316 318 318 315 316 316 315 313 312 315 317 316 315 313 314 315 315 316 316 315 316 317 317 316 319 324 326
319 318 318 321 323 322 322 322 322 322 322 322 321 321 321 321 321 320 320 320 320 320 318 318 318 319 319 315 314 314 314 315 316 315 315 313 312 312 312 312 312 311 312 311 312 312 312 312 312 312 313 312 312 314 313 313 314 313 315 320 321 317 316 317 317 316 316 314 313 313 315 317 316 314 314 315 315 316 316 316 316 315 316 317 317 320 324 327
319 318 319 322 323 322 322 322 322 322 321 321 320 320 320 320 320 320 319 319 319 317 315 315 317 319 318 313 313 315 313 314 314 314 314 313 312 311 311 312 311 311 311 311 312 311 311 313 312 313 313 312 312 312 315 319 318 315 315 315 318 316 314 317 317 316 316 315 314 314 313 317 317 315 315 315 314 315 317 316 316 315 315 316 317 320 323 325
319 319 320 322 322 322 322 322 322 322 320 320 319 319 319 318 318 318 318 317 317 316 314 314 316 318 318 314 313 314 313 313 314 313 313 313 312 311 312 312 311 311 312 312 313 311 313 314 312 313 313 312 311 310 315 324 320 318 317 315 318 317 313 317 318 315 315 315 316 316 313 314 315 314 315 315 315 315 316 316 314 315 316 315 316 318 320 322
319 319 321 322 322 322 322 321 321 320 319 319 318 317 317 317 318 318 317 316 315 315 314 313 315 316 314 313 313 314 314 313 313 313 314 313 312 312 312 311 311 312 311 313 314 313 313 314 312 312 312 312 312 311 312 317 315 315 316 314 317 318 314 316 317 315 315 315 316 316 315 315 314 315 314 314 315 316 315 315 314 314 315 315 315 316 318 319
318 319 321 322 321 322 321 321 320 319 318 318 317 316 317 318 319 319 317 316 314 314 313 311 315 315 312 313 313 314 314 313 313 313 314 313 312 313 313 311 312 312 312 313 314 313 312 313 313 312 313 312 311 313 311 311 312 314 316 313 315 319 317 315 315 314 314 314 316 316 314 314 314 314 314 314 315 315 315 314 314 314 314 315 316 317 317 316
319 320 321 321 321 321 321 320 319 318 318 317 316 315 315 316 316 316 316 316 315 314 314 312 312 314 312 313 313 313 314 314 314 314 314 313 313 314 313 312 311 312 313 313 313 313 311 312 313 311 312 313 312 312 311 311 314 317 318 315 313 318 318 314 315 315 314 314 317 318 315 315 315 314 314 314 315 315 314 313 314 314 315 315 316 318 318 317
319 320 320 320 320 320 320 319 318 318 317 316 315 314 315 314 314 314 315 316 316 314 313 312 311 312 313 313 313 313 313 313 314 314 314 313 314 315 313 312 311 312 312 313 313 313 312 313 313 312 311 312 312 311 311 312 316 319 319 318 316 318 319 316 314 314 314 313 315 317 316 316 314 314 316 315 314 314 313 314 314 314 316 316 317 318 319 318
320 320 320 320 319 319 319 318 318 317 316 316 315 314 314 314 314 314 313 315 315 313 312 311 311 312 314 314 313 312 312 312 313 314 313 313 314 314 313 312 312 312 311 312 313 313 314 314 314 314 311 312 312 311 313 313 315 319 321 325 323 318 320 320 316 316 315 315 317 314 314 320 319 314 314 313 313 313 314 314 313 314 316 315 317 318 317 319
320 319 319 319 319 319 318 317 317 316 316 315 314 315 314 314 313 313 313 314 313 312 311 311 311 312 314 313 312 312 312 313 314 313 312 313 313 313 313 312 312 312 311 312 314 313 314 314 314 316 312 313 314 313 316 316 315 316 321 327 325 320 322 321 319 321 319 317 319 313 313 329 335 324 316 313 312 313 312 315 314 314 315 315 317 317 317 318
320 320 319 318 318 318 317 317 316 316 316 315 314 315 315 314 312 312 315 316 313 311 312 312 311 313 314 313 314 313 312 313 313 313 313 312 313 313 313 313 312 313 312 312 314 316 315 312 314 316 314 315 316 315 318 319 314 313 318 324 324 325 326 322 321 324 322 317 317 315 314 323 330 327 323 319 316 314 312 313 315 313 314 315 315 315 316 317
320 320 319 318 317 317 317 317 316 315 316 315 314 314 314 312 311 312 314 315 314 312 311 311 311 313 314 313 313 312 312 313 314 313 313 313 314 313 313 313 313 312 312 313 315 317 314 312 315 318 316 317 316 315 318 318 315 316 321 325 326 326 327 326 324 324 325 319 318 322 319 317 320 323 324 321 317 318 316 314 316 315 314 318 317 318 319 320
320 319 318 317 317 317 317 316 315 315 315 315 314 314 314 312 312 313 313 314 315 312 311 310 310 313 314 313 313 312 312 314 315 314 313 313 314 313 313 313 313 314 313 313 316 316 315 315 318 318 317 316 316 319 321 318 317 321 323 327 328 327 330 331 328 325 323 319 321 325 318 316 325 329 327 321 316 318 320 318 317 317 316 318 318 318 320 321
318 318 318 317 316 316 316 315 315 315 315 315 314 314 314 313 313 313 312 314 313 311 311 310 310 314 314 313 313 313 313 313 315 314 313 313 313 312 314 314 314 316 316 316 319 317 316 316 317 318 316 318 321 324 326 322 319 322 323 326 328 329 331 329 330 330 320 315 326 331 321 315 322 330 326 317 315 319 320 320 317 318 320 318 317 319 322 324
318 318 317 317 316 315 315 314 314 314 314 314 315 314 313 313 314 313 313 314 312 311 311 310 312 315 313 312 313 313 313 314 315 314 313 314 313 311 314 314 316 321 324 326 324 319 315 312 316 320 317 319 321 320 323 324 321 322 324 324 323 327 332 333 336 334 319 320 336 336 325 315 315 327 327 316 319 322 317 318 317 320 325 323 322 324 325 327
318 317 317 316 315 314 314 314 313 314 314 314 314 313 312 312 313 313 314 313 312 312 311 311 313 314 312 312 313 314 314 315 313 313 314 315 314 313 313 314 317 323 325 325 322 319 316 313 316 318 315 317 321 318 320 322 322 325 326 322 317 322 334 336 334 327 319 328 337 327 319 316 315 324 326 318 320 320 316 319 321 322 326 324 325 325 325 329
317 317 316 316 314 314 314 314 313 314 313 314 313 311 312 313 312 313 313 311 313 312 311 312 314 314 312 311 313 314 315 316 313 313 314 314 314 313 313 315 316 318 319 320 321 320 319 317 316 316 313 315 321 320 319 321 324 325 321 318 319 323 325 326 325 323 323 327 324 316 316 319 318 319 318 317 319 318 316 319 324 327 326 325 325 324 325 328
317 317 316 314 314 313 313 313 313 314 313 313 312 311 312 313 313 313 311 311 313 312 310 312 314 314 312 311 314 314 316 316 313 313 314 314 315 313 315 319 317 316 319 320 322 322 322 320 317 315 314 314 318 318 316 320 322 318 314 316 324 324 316 316 321 321 322 322 316 313 316 319 319 318 318 318 316 315 317 320 328 332 329 328 326 325 327 328
316 316 314 313 313 313 313 313 313 313 312 312 311 311 313 313 314 314 310 311 313 311 310 313 314 314 312 312 314 314 317 316 313 313 314 314 315 314 315 318 316 318 320 319 319 321 322 320 317 316 315 315 318 318 318 321 319 317 318 317 321 324 320 321 324 324 323 320 315 312 316 322 320 316 319 320 315 315 317 320 324 323 323 323 321 321 325 326
316 315 313 312 313 313 313 312 313 313 311 310 310 311 313 313 313 313 311 312 312 310 311 313 314 314 312 313 314 315 320 318 314 314 314 314 315 314 314 314 314 318 319 316 316 316 318 318 318 318 316 315 319 320 320 319 317 320 321 318 319 324 330 329 325 330 328 319 317 316 319 326 320 313 317 318 316 316 315 317 318 317 319 319 318 320 325 327
315 313 312 312 312 312 312 312 313 312 310 309 309 312 313 311 312 313 312 311 311 310 312 314 315 313 313 314 314 315 319 319 315 314 314 314 314 313 314 314 314 316 315 315 318 317 316 317 317 319 316 314 317 319 320 318 318 320 319 319 322 323 329 325 316 319 319 316 321 319 318 325 319 314 319 314 314 317 315 317 319 320 323 321 322 327 330 331
314 312 312 312 312 312 312 312 312 311 309 308 310 313 312 311 314 315 312 311 311 311 313 314 314 313 313 313 314 315 318 317 314 314 314 314 313 313 314 314 315 314 313 314 317 316 317 317 315 318 318 314 314 316 319 318 318 320 319 320 320 316 321 325 318 316 315 317 326 319 316 323 318 317 325 315 313 319 317 318 319 319 322 322 325 331 333 332
312 312 313 312 312 312 312 312 311 310 310 309 311 313 313 314 315 314 313 312 311 311 312 314 314 312 313 313 313 315 317 316 315 314 314 313 315 315 312 313 315 315 314 314 315 316 321 321 315 314 317 316 315 316 317 317 315 317 320 318 319 318 320 322 319 320 318 316 324 321 317 321 317 319 325 314 314 323 318 317 317 317 320 321 325 331 330 328
312 313 313 312 312 311 311 312 311 310 311 311 312 313 315 319 317 313 312 311 311 312 312 313 313 312 313 313 313 314 316 315 314 314 314 313 316 316 312 313 315 315 314 316 318 318 322 326 318 314 316 316 316 316 316 317 316 316 317 314 317 322 324 322 317 320 324 319 322 322 318 322 324 323 323 315 314 321 318 317 317 316 319 321 325 330 327 325
312 314 313 312 312 311 311 311 310 311 312 311 311 313 317 321 318 313 313 312 312 313 312 312 312 312 313 314 314 315 316 316 314 314 316 314 314 315 312 312 316 316 315 317 320 318 317 322 321 315 313 315 318 318 318 318 315 315 316 314 315 317 319 323 320 323 329 324 323 320 318 331 336 324 320 316 313 316 319 320 320 319 320 321 325 328 326 325
313 314 313 311 311 311 311 311 311 311 312 311 311 315 318 319 316 313 314 314 314 315 315 313 312 312 314 314 314 315 315 317 315 315 318 315 313 316 314 313 316 315 316 318 320 322 320 318 320 317 315 317 320 318 317 318 316 315 315 314 315 315 316 319 318 322 324 323 328 324 319 333 339 323 317 315 313 318 321 321 323 323 324 327 327 326 324 323
313 314 313 311 311 311 310 311 311 309 312 314 314 317 319 317 315 315 315 313 316 320 318 314 313 313 314 314 315 315 315 316 315 315 318 316 314 318 316 314 316 314 316 320 318 322 323 319 319 318 316 318 319 314 313 316 319 318 316 315 315 315 318 319 319 321 317 316 325 324 316 325 334 326 321 317 318 322 324 325 326 324 324 327 326 323 322 322
314 314 312 311 311 310 310 311 311 310 313 317 316 317 317 315 315 317 316 313 316 321 317 313 313 313 315 315 315 315 314 315 317 316 319 317 315 319 319 315 316 314 315 320 319 320 322 320 320 319 316 318 321 317 313 314 318 317 316 317 315 313 319 324 325 325 319 314 318 317 314 324 336 330 322 318 319 318 318 322 324 322 324 327 325 323 322 322
313 313 312 311 310 310 310 311 311 311 314 317 317 318 317 316 317 316 315 314 319 321 315 313 314 314 316 315 314 315 314 315 317 316 319 318 314 322 325 317 314 315 314 316 317 319 322 320 318 319 317 318 322 321 317 315 316 317 318 318 315 313 316 319 318 319 320 321 321 318 317 323 329 323 315 314 315 312 312 316 319 323 326 329 328 326 324 322
313 313 313 311 310 311 312 311 311 310 313 317 318 318 318 318 320 319 316 316 322 324 319 316 317 318 318 316 315 315 314 316 319 317 319 319 316 323 328 320 314 314 316 318 317 320 327 323 318 319 319 317 318 318 317 317 316 317 320 319 317 316 315 316 320 318 318 321 321 319 317 315 316 315 311 313 315 315 313 314 317 321 325 328 328 326 324 322
313 313 314 312 311 312 312 312 313 311 313 316 317 317 317 318 319 320 318 317 321 325 324 321 320 318 316 316 315 314 314 318 321 318 318 320 320 321 323 321 318 316 320 323 317 317 325 322 317 317 316 315 317 318 318 319 317 316 318 318 318 317 314 319 326 321 318 320 318 317 316 313 313 314 313 316 318 317 314 314 315 316 320 327 328 324 322 320
313 313 313 312 312 312 312 313 315 312 311 314 315 315 317 317 316 316 316 317 320 324 324 320 318 317 315 315 316 315 314 318 322 319 318 321 320 316 316 321 321 319 320 319 316 318 321 318 317 317 315 315 322 322 318 318 317 316 317 318 319 319 317 319 321 317 318 321 317 315 317 315 314 315 316 318 318 316 314 313 315 312 315 324 326 322 321 319
311 312 312 312 313 313 312 313 313 312 311 313 314 314 316 317 316 315 317 319 319 322 323 319 316 317 316 315 316 315 314 317 318 317 319 320 318 316 317 317 317 318 318 313 318 324 321 316 317 316 314 317 324 324 319 318 317 316 317 319 319 321 320 317 316 316 318 318 314 314 318 317 314 314 316 316 314 314 312 310 311 311 313 321 323 321 320 319
310 312 312 312 313 313 312 312 312 312 312 313 314 314 315 316 315 316 319 319 317 319 321 318 317 318 317 316 316 314 315 316 316 317 318 317 316 319 320 316 314 318 318 313 317 322 317 317 318 315 313 316 321 325 320 318 318 316 316 318 318 320 320 317 315 315 315 316 314 314 317 317 314 313 315 315 312 311 310 310 311 311 314 320 322 321 319 317
309 310 310 312 313 312 312 313 312 312 313 314 315 314 313 314 314 316 318 318 316 317 318 317 318 319 317 317 317 315 314 315 316 317 316 314 316 318 319 318 316 317 316 314 316 316 314 319 319 315 313 315 319 325 322 319 320 318 317 317 316 318 319 316 316 315 314 316 314 314 317 317 313 313 317 318 314 310 310 313 314 313 316 321 321 321 320 319
302 302 304 310 313 311 312 313 312 312 313 314 315 314 313 313 314 315 316 316 315 316 316 316 317 318 317 317 318 316 315 316 318 316 314 315 316 315 316 318 317 315 316 316 316 315 315 319 318 316 316 315 317 324 322 319 319 319 320 318 315 316 316 315 315 315 315 316 315 316 317 314 312 316 318 317 315 312 313 317 316 315 318 321 323 323 321 319
301 302 305 311 313 311 312 313 313 313 312 312 313 313 312 313 313 314 315 316 315 315 316 316 316 316 317 317 318 317 317 318 317 314 314 314 313 315 318 317 314 315 317 316 317 318 317 317 317 316 318 316 316 320 321 319 318 318 319 318 314 314 315 314 315 316 315 315 315 315 314 313 316 318 316 316 317 316 316 317 316 317 319 320 320 321 320 317
Wind_Speed
38 42 44 45 46 45 44 44 43 42 41 40 39 39 38 38 38 37 36 35 33 31 30 28 24 22 22 21 20 22 21 17 14 13 12 16 22 17 14 13 9 9 4 9 12 12 12 12 15 13 6 3 1 2 1 2 1 3 2 1 3 2 3 4 5 6 6 6 6 6 5 9 6 2 1 3 7 6 7 6 3 7 8 8 14 26 30 28
39 40 43 45 47 47 46 45 44 43 42 41 40 40 39 38 38 38 37 36 34 32 31 29 26 23 22 22 20 22 21 15 10 11 19 25 25 21 20 16 10 11 7 9 13 11 10 7 13 14 3 1 1 1 1 1 1 3 2 1 4 4 3 3 4 7 6 8 8 7 6 7 7 5 3 3 5 6 7 4 4 8 8 11 18 26 28 28
41 40 43 45 47 47 48 46 45 44 43 41 41 40 39 37 36 38 37 36 35 32 31 30 29 24 23 22 19 19 16 7 2 9 25 29 24 24 24 21 14 11 8 11 13 11 12 12 16 13 1 1 3 1 1 1 1 2 2 1 5 5 2 6 2 5 7 10 10 7 6 6 6 5 3 4 7 6 7 4 4 7 7 8 12 20 25 25
41 40 43 46 46 46 47 47 45 45 44 42 41 40 39 38 36 36 36 36 35 32 31 31 29 26 23 20 18 17 10 2 2 15 31 31 27 26 25 24 17 11 9 11 14 13 16 19 17 9 1 2 3 1 1 3 2 1 3 4 6 3 0 5 6 1 8 11 11 8 6 5 5 4 4 6 7 4 5 8 8 10 12 11 10 17 22 22
42 41 43 46 46 47 47 47 46 45 44 42 41 40 39 38 36 34 35 35 35 33 32 31 30 27 22 20 18 16 10 2 7 20 34 34 32 28 26 24 18 14 12 10 14 14 14 15 12 5 2 1 2 0 3 5 3 1 3 6 6 2 2 3 5 4 4 9 9 9 7 6 4 4 5 8 7 5 6 8 11 13 15 16 15 17 19 19
43 43 43 46 47 49 50 48 47 45 44 43 40 39 38 38 36 35 34 34 35 34 32 31 30 28 24 22 19 16 11 2 4 10 22 33 38 31 26 24 19 16 14 11 13 12 11 7 6 3 1 1 2 2 4 4 5 2 5 3 4 1 2 2 4 5 1 9 8 8 6 6 6 3 5 8 6 6 6 8 11 15 19 21 20 18 16 16
43 44 43 45 47 49 50 49 47 46 44 43 41 39 38 37 36 34 34 34 34 33 32 30 30 28 25 21 16 12 7 8 12 9 8 24 38 32 27 23 21 19 15 12 10 9 9 4 4 3 1 1 3 4 5 4 5 4 5 1 3 1 3 2 2 4 3 8 5 6 6 7 8 4 4 5 5 5 4 5 11 17 22 23 18 16 16 18
42 45 44 44 48 48 48 48 47 46 45 43 41 39 37 36 35 34 33 33 33 32 31 31 30 29 28 24 14 6 5 17 25 14 3 21 31 31 27 24 24 22 19 16 13 11 6 2 4 3 2 3 3 3 4 3 2 5 5 2 1 1 1 1 3 5 6 4 1 7 7 4 6 4 3 5 5 5 3 6 11 15 17 17 15 15 15 17
42 45 46 46 49 50 48 49 48 46 45 43 41 39 37 35 34 33 33 33 32 32 32 32 32 30 30 24 11 5 12 25 23 8 6 23 27 28 29 28 30 26 20 19 19 15 4 1 6 3 3 5 2 4 3 3 2 5 5 3 2 0 2 1 4 4 4 2 3 8 5 1 2 2 2 6 8 6 5 10 11 13 13 13 13 14 14 15
44 44 47 47 50 54 51 50 49 47 45 44 42 39 37 35 34 34 34 33 32 31 32 33 33 32 30 20 9 6 12 22 20 7 9 24 27 28 31 31 33 30 22 19 21 16 7 6 6 4 3 4 3 4 2 4 3 3 4 4 4 3 2 0 2 1 2 2 3 7 5 0 2 1 2 5 8 7 8 10 10 13 12 12 11 12 15 16
46 44 48 47 47 52 53 50 48 46 46 45 43 40 37 36 35 35 34 33 32 31 32 33 34 35 29 16 10 9 5 15 23 14 11 23 29 31 34 33 30 30 23 16 19 19 14 10 4 6 3 3 4 4 3 4 2 3 6 4 2 3 0 1 3 2 1 2 2 7 4 1 4 1 6 6 8 9 10 10 10 11 11 11 11 10 12 16
46 45 48 47 44 48 52 51 49 47 46 44 42 39 37 36 36 35 34 34 31 30 31 32 35 35 25 11 10 10 3 12 22 15 12 22 31 34 35 33 30 30 25 16 17 22 17 7 4 5 3 2 4 3 3 3 3 4 5 3 1 3 2 2 2 2 2 1 3 5 2 3 1 6 8 5 7 8 10 10 9 9 9 9 10 9 9 14
46 46 46 46 47 49 50 50 48 47 45 43 41 39 38 36 35 34 34 33 31 31 30 31 36 30 16 7 11 11 6 12 20 14 14 21 27 29 32 33 30 30 26 20 23 25 20 10 6 7 4 3 3 3 3 3 3 3 2 4 1 3 3 5 2 2 3 0 2 3 1 5 6 10 7 5 8 8 8 8 8 7 8 8 8 8 9 13
46 47 47 46 49 52 51 49 48 47 45 43 41 40 39 36 35 34 32 31 29 30 28 33 36 21 7 4 7 13 12 15 20 17 18 21 23 23 26 30 29 28 22 20 26 25 19 15 10 7 5 3 3 3 3 3 2 3 2 1 2 2 4 6 2 4 3 1 1 4 3 5 7 9 7 7 9 10 9 8 7 7 6 7 7 8 8 11
46 47 48 48 51 54 53 51 48 47 45 43 43 41 39 36 34 32 31 29 28 29 29 33 29 11 2 3 5 13 15 15 19 21 21 23 26 21 22 28 26 25 18 16 24 23 19 16 9 5 5 3 1 2 2 2 2 1 4 3 1 3 4 6 2 5 5 1 1 4 3 5 7 8 4 6 9 9 10 8 7 7 7 7 6 7 8 9
48 48 48 50 53 54 55 52 48 47 46 44 43 41 39 37 33 31 31 28 25 29 28 26 20 6 2 4 5 13 14 13 19 23 23 24 27 23 23 25 20 19 15 12 19 21 18 12 4 3 4 2 2 2 0 1 2 2 3 4 3 4 3 4 3 3 4 2 1 2 2 3 5 5 2 4 8 8 8 7 7 7 8 8 7 7 7 8
50 49 48 50 53 53 54 54 50 47 46 45 44 41 38 35 32 29 29 27 25 27 22 19 16 4 1 3 7 11 11 14 21 25 25 23 24 27 26 17 12 15 12 8 12 13 11 7 3 2 2 3 3 4 3 3 4 3 1 2 3 4 3 2 3 4 3 3 3 4 3 4 5 4 4 3 5 8 7 8 8 7 8 8 7 7 7 8
51 51 50 51 53 54 54 53 52 49 47 47 43 41 38 35 34 29 28 28 24 21 14 11 13 4 3 9 9 11 15 19 24 26 25 20 21 30 28 14 10 13 10 5 5 6 5 3 3 3 3 5 5 5 5 5 6 4 3 3 2 3 4 5 3 3 5 3 4 5 4 8 9 5 5 6 3 7 8 8 7 7 8 7 8 8 8 9
53 51 53 55 55 56 55 54 53 51 50 48 44 44 40 33 29 24 26 27 19 12 9 11 14 6 5 13 11 11 20 25 23 23 22 19 21 27 23 15 12 12 9 5 4 5 4 2 3 6 6 6 6 6 6 6 7 8 7 6 5 4 4 5 4 4 6 5 3 6 6 9 10 8 6 7 4 6 8 7 6 7 7 7 7 8 9 9
54 53 55 58 59 57 55 57 56 54 53 51 50 41 28 21 14 11 15 18 14 10 11 18 17 3 2 8 12 15 21 22 17 16 21 23 24 21 13 11 10 7 7 8 6 5 5 4 5 7 6 6 6 6 7 8 6 7 7 6 6 6 3 3 2 3 3 5 5 7 7 8 8 9 8 7 5 6 8 7 7 8 7 7 8 8 10 10
55 54 54 58 63 58 57 60 58 59 57 57 53 27 12 18 12 12 17 13 14 10 5 18 20 5 2 12 22 24 16 10 8 11 21 24 24 17 6 8 10 6 6 8 7 4 5 7 7 7 7 7 7 7 8 9 5 4 6 6 6 5 4 2 1 3 2 3 5 4 4 9 9 9 8 5 6 8 10 9 9 10 9 8 8 9 10 8
55 54 55 60 65 61 60 60 59 62 57 55 44 14 14 22 8 15 21 7 13 14 5 14 21 7 3 16 30 31 14 5 7 10 19 20 15 11 6 8 10 8 6 6 6 5 6 7 7 9 9 7 7 8 8 8 5 3 3 5 5 5 3 1 2 1 2 2 3 2 2 9 10 8 8 6 7 8 10 11 11 11 10 9 8 9 9 8
55 55 54 58 67 67 64 62 62 60 51 47 32 14 26 25 10 22 19 5 10 13 5 11 19 7 2 10 24 29 16 10 11 11 18 19 10 8 9 9 9 8 8 8 8 7 5 6 7 9 8 7 8 9 8 6 3 3 3 5 4 4 4 1 2 1 2 1 1 2 2 6 7 6 8 9 9 7 8 12 11 10 11 12 11 10 10 10
56 56 52 54 64 67 66 65 61 51 46 44 28 22 35 28 24 34 15 6 7 7 6 14 16 8 5 7 14 19 12 9 11 12 19 18 8 7 9 10 10 8 8 10 10 8 6 5 6 8 9 9 7 7 8 6 4 2 3 5 4 5 4 3 3 2 3 3 1 3 5 6 5 6 9 8 6 7 7 10 11 10 11 10 10 10 11 11
59 59 56 56 58 64 69 60 47 43 42 35 23 29 37 29 33 35 11 5 5 2 4 12 11 8 10 9 9 10 7 4 7 13 19 18 12 8 7 7 8 9 11 11 10 7 7 5 5 8 10 10 8 7 8 7 4 4 3 5 6 7 5 6 6 5 4 4 3 3 2 6 5 5 9 6 4 8 8 8 11 12 10 8 9 10 10 10
63 60 62 63 58 65 60 34 32 43 32 22 27 37 37 33 35 25 7 3 5 2 5 9 9 11 13 10 7 7 7 3 4 12 18 17 11 7 7 6 4 8 12 10 6 3 3 2 4 9 11 12 9 7 8 8 6 3 4 4 7 9 9 9 7 4 3 2 3 3 4 5 6 5 8 6 5 9 7 8 12 11 9 9 9 10 9 9
66 64 66 66 64 64 40 17 33 41 21 21 36 40 37 35 30 15 3 2 4 5 6 5 6 12 13 11 11 10 6 5 5 8 14 13 8 3 7 9 5 7 8 6 4 2 3 4 4 7 8 10 9 6 7 8 7 4 4 5 10 10 9 9 7 4 3 3 3 3 4 2 5 6 8 5 5 9 7 8 11 9 9 10 10 10 10 10
64 70 68 66 73 65 35 28 39 27 21 36 41 38 37 33 19 6 4 5 4 5 6 4 5 9 9 9 11 5 4 11 9 7 12 10 6 2 6 9 8 10 7 6 7 3 3 8 8 9 7 6 7 5 7 9 6 5 4 7 8 8 8 7 6 4 2 3 2 5 1 2 5 7 6 4 3 7 8 9 10 9 10 10 10 10 9 8
62 72 73 72 73 55 35 39 36 19 29 45 38 32 31 20 7 2 4 6 3 4 6 6 6 7 7 8 7 1 5 10 6 7 9 7 3 1 5 7 8 10 3 3 8 3 2 6 7 9 8 6 5 3 5 8 5 4 4 7 5 5 5 4 5 4 3 2 4 7 2 2 5 6 5 2 3 7 8 8 8 7 8 9 9 7 5 4
65 68 74 76 60 39 33 35 31 28 39 43 33 28 22 10 4 5 7 6 4 3 4 6 6 8 12 12 6 4 7 4 2 8 8 4 2 1 2 4 6 8 4 6 4 1 2 1 0 3 5 5 5 3 0 4 7 6 6 7 7 6 5 4 3 4 4 2 6 7 3 3 3 6 4 4 5 6 7 6 6 5 3 3 4 4 5 4
70 66 74 73 49 35 31 23 30 42 45 40 31 24 17 5 3 8 8 6 6 3 4 6 7 9 16 16 9 7 7 3 6 13 9 4 4 1 3 5 4 5 4 4 3 4 4 2 0 1 1 3 6 5 4 2 5 7 5 6 5 4 4 4 5 4 2 4 6 5 2 3 3 6 5 5 6 6 6 6 6 5 2 3 4 5 6 5
70 68 75 64 42 36 29 23 37 46 46 44 29 15 10 5 5 6 6 8 7 6 8 12 12 12 18 17 10 8 7 4 8 14 12 9 7 6 6 6 6 6 5 4 3 3 4 1 2 3 2 3 6 4 4 5 4 5 5 6 5 2 3 2 2 1 2 5 4 3 2 2 5 7 7 9 11 8 6 6 7 7 5 5 5 6 6 5
70 70 66 50 37 33 30 35 42 40 44 43 23 6 5 8 8 7 7 8 8 10 12 14 16 16 18 15 9 8 7 6 9 10 10 9 7 7 4 4 8 7 5 5 4 3 2 5 3 2 2 1 5 6 4 1 1 5 7 6 5 3 3 1 3 1 3 4 3 3 2 2 4 6 9 13 14 10 7 7 7 8 8 8 7 6 6 5
71 67 51 37 35 31 35 45 44 40 42 31 13 8 9 9 9 10 10 7 6 12 12 13 16 15 15 12 9 9 6 4 9 11 9 8 7 8 6 6 9 7 6 6 4 5 4 2 3 3 1 2 4 5 6 7 4 4 6 6 6 5 4 4 4 3 3 3 2 2 2 3 3 4 7 10 11 7 4 4 4 5 5 4 4 4 5 5
68 59 39 30 32 34 42 48 44 44 36 16 8 11 11 10 9 9 9 6 7 11 12 15 18 15 12 9 7 9 5 3 8 9 9 10 10 11 9 7 9 7 7 8 4 5 7 2 4 3 2 3 4 3 4 8 4 3 3 5 4 5 5 4 3 5 5 2 1 2 3 5 4 6 8 6 6 4 1 2 1 3 4 1 2 5 5 5
57 42 30 27 30 39 48 47 43 42 26 11 10 10 9 10 8 8 8 8 10 14 16 16 14 12 10 6 7 11 5 5 10 8 6 9 9 11 10 7 9 9 10 9 3 3 6 0 5 4 3 0 3 3 1 4 4 1 3 4 5 4 7 5 2 1 4 3 2 2 3 5 3 6 9 6 4 4 4 4 4 6 5 3 6 6 5 5
40 28 21 22 30 41 48 47 43 34 16 9 11 10 8 6 4 7 8 9 13 16 18 14 9 12 12 8 10 14 8 7 11 9 7 8 6 10 11 7 9 12 10 7 3 3 6 2 4 1 0 3 1 1 2 2 4 5 4 6 3 3 4 4 2 1 3 2 3 2 4 5 2 2 6 4 4 7 7 7 6 5 4 5 7 6 5 6
27 22 15 15 32 41 44 47 39 21 8 8 12 10 5 2 3 8 10 12 16 16 15 11 8 11 13 12 12 14 13 10 10 9 8 8 5 9 14 9 7 11 9 5 3 2 5 3 3 1 2 4 2 3 1 3 1 3 4 4 4 3 2 2 3 2 2 3 4 3 4 3 3 5 4 2 6 8 8 7 6 6 5 6 6 5 5 5
21 15 8 13 30 38 44 44 27 10 6 9 12 9 4 2 4 9 14 15 14 14 13 10 8 8 9 11 11 12 12 10 11 9 6 8 4 7 15 10 5 11 10 6 5 3 4 4 2 3 2 2 3 1 6 3 2 2 1 2 2 2 4 3 3 4 3 4 3 3 2 3 6 6 5 7 9 8 7 6 6 7 7 7 6 5 5 5
13 7 5 17 30 38 44 34 14 6 8 11 10 6 4 4 4 9 17 16 10 7 8 10 11 10 9 10 11 12 9 7 11 8 4 7 4 5 13 11 7 11 9 6 6 4 3 4 3 2 3 1 2 2 6 7 3 2 4 5 3 1 3 2 2 3 4 4 3 2 2 5 6 5 8 11 10 8 7 7 7 8 7 7 6 6 6 6
8 4 5 21 35 40 37 19 7 10 8 7 7 2 2 4 4 10 16 15 9 2 4 10 11 9 9 10 11 11 8 7 11 7 3 7 6 2 8 10 10 11 8 6 6 4 2 3 5 3 1 3 4 4 3 5 4 4 6 8 7 4 5 4 3 2 2 3 4 4 3 7 7 4 7 9 8 7 8 8 8 7 6 6 5 6 6 5
6 4 8 27 42 40 26 10 9 10 4 4 5 1 4 6 6 8 10 12 9 2 4 7 7 8 8 9 10 10 8 7 10 8 3 6 8 3 6 10 12 12 9 5 4 4 3 5 5 2 3 4 5 5 2 1 1 2 4 5 6 5 5 6 5 3 2 2 3 4 3 7 7 4 6 7 6 7 7 7 7 5 5 5 4 5 4 5
4 5 12 32 41 31 16 9 9 5 2 4 2 2 3 5 6 7 7 9 7 3 5 5 7 9 7 7 10 11 10 6 7 8 4 4 7 3 4 12 14 13 10 5 4 4 4 5 5 2 1 2 5 5 3 2 1 2 4 3 4 3 3 5 5 4 4 4 3 2 4 7 6 5 4 4 4 4 4 5 6 5 4 5 6 6 5 6
5 5 8 24 32 18 8 10 11 8 7 4 4 3 2 3 6 8 9 9 5 5 7 5 7 8 6 8 11 13 13 7 5 6 4 5 6 2 1 12 16 14 9 6 7 5 2 3 5 5 3 3 4 4 4 2 2 2 3 2 3 3 3 3 2 3 2 4 5 5 5 7 5 3 1 2 2 0 2 3 5 6 5 6 6 5 6 6
8 4 4 11 15 6 3 6 8 10 8 6 7 7 4 2 1 4 9 8 2 5 7 5 7 7 6 8 8 9 11 6 4 6 3 4 3 4 2 9 15 14 8 7 9 6 4 4 5 6 7 6 5 5 5 4 3 2 3 5 7 7 7 5 3 4 3 4 6 6 8 7 1 4 3 3 3 2 5 6 4 5 6 6 6 6 6 6
8 5 4 6 3 2 1 1 3 8 9 7 7 6 6 6 0 2 6 5 1 5 6 4 7 9 8 11 10 8 10 3 3 6 5 5 3 3 2 3 6 7 8 11 12 7 4 3 5 8 10 10 7 4 4 9 8 7 8 8 8 8 7 6 4 4 5 3 5 10 12 7 2 2 2 5 6 7 7 6 6 6 6 6 6 6 5 5
4 6 9 8 5 5 3 3 4 8 11 11 8 6 8 11 6 1 2 1 3 5 5 3 8 10 11 14 11 10 11 4 5 8 7 4 3 1 2 5 5 3 5 10 9 6 5 4 7 8 8 6 6 5 8 12 11 12 8 7 7 7 7 7 6 8 6 5 6 13 11 9 7 7 8 9 8 8 8 8 8 7 6 6 5 5 5 5
2 5 7 4 5 9 9 9 11 12 13 12 7 7 10 11 10 7 2 1 3 4 4 3 10 14 16 17 12 10 10 6 5 8 6 3 4 2 4 5 4 4 3 6 3 4 5 6 6 6 5 3 4 6 10 12 10 11 10 10 10 9 10 12 14 12 8 7 14 13 9 12 12 8 10 10 9 9 10 8 5 4 5 5 6 6 6 6
2 3 3 2 1 6 8 7 9 11 14 11 6 8 14 15 13 8 3 4 4 2 3 7 11 12 15 16 12 10 11 10 7 6 4 5 5 4 3 2 1 4 5 5 2 2 4 4 3 6 6 3 3 6 9 9 7 7 10 13 12 12 15 17 18 18 13 13 17 7 2 12 13 7 8 8 7 7 4 2 3 5 6 6 7 7 7 7
2 2 3 1 2 6 8 7 7 9 9 8 6 8 13 17 16 9 3 7 10 5 4 12 13 10 12 14 12 12 15 15 12 10 9 9 6 4 4 4 3 3 4 4 2 1 2 4 3 6 5 4 5 5 6 8 8 7 8 11 12 14 17 18 18 15 9 11 15 6 5 13 9 6 7 7 6 4 2 3 6 7 6 7 7 7 7 8
0 1 3 4 4 7 9 7 7 9 8 7 7 7 11 15 17 11 3 3 10 9 8 13 14 8 8 10 11 13 14 13 15 16 16 16 13 8 4 5 8 7 3 4 4 2 2 3 2 5 5 5 6 6 5 6 6 5 6 11 16 16 16 15 13 9 8 12 14 8 9 12 4 6 6 5 6 6 6 8 8 6 6 9 9 9 9 9
2 2 1 4 3 4 9 8 7 9 9 9 8 7 8 11 11 11 6 2 1 6 7 13 15 9 7 10 11 12 12 11 12 13 11 11 11 7 4 7 13 13 8 6 4 2 5 5 3 6 6 5 4 6 8 8 6 4 10 15 19 17 13 10 8 8 12 14 11 11 13 9 3 6 6 4 6 8 9 8 8 8 8 9 10 10 9 9
Wind_Direction
226 221 217 215 211 207 206 204 205 206 205 205 205 207 206 205 205 207 208 207 207 206 204 202 201 202 199 204 209 215 227 231 229 220 215 233 227 215 205 206 213 200 211 313 327 338 334 344 328 310 287 267 132 163 190 165 112 68 98 171 260 233 204 223 192 182 156 153 178 199 172 137 143 124 136 70 75 101 88 64 47 48 50 78 120 140 149 152
227 224 219 216 213 208 206 204 204 205 205 204 205 207 207 205 204 205 206 206 205 206 206 205 206 208 206 208 211 216 221 222 227 226 231 239 232 220 212 207 210 195 190 304 317 333 328 317 311 314 316 248 278 149 147 199 141 125 137 181 237 220 228 264 178 167 143 147 163 180 170 146 160 154 132 122 128 130 107 71 63 76 66 85 117 136 147 153
224 226 221 216 212 208 205 204 203 203 204 204 205 207 207 206 205 204 204 203 202 203 204 205 205 204 205 203 204 208 204 204 230 239 237 233 227 221 211 203 202 196 206 281 299 315 302 289 295 299 316 299 274 136 114 234 212 166 145 206 246 234 289 338 346 172 154 143 146 172 171 147 174 153 129 152 152 154 148 152 111 113 130 121 128 141 149 156
223 224 222 219 213 207 204 203 201 201 202 203 205 205 206 206 205 203 201 199 199 200 201 200 199 197 198 194 193 190 166 75 270 239 238 225 218 217 203 199 200 197 206 256 284 291 284 288 291 284 122 321 285 141 159 219 212 167 153 198 252 249 305 325 324 279 149 142 148 163 135 133 177 144 143 146 141 198 203 187 170 160 158 149 149 151 154 162
226 223 220 219 215 209 206 202 201 200 201 203 204 203 204 204 204 203 200 197 196 197 198 199 198 195 192 186 184 169 132 26 237 235 242 225 214 211 200 199 198 190 189 236 278 282 278 281 282 288 89 252 293 129 216 223 170 178 219 205 250 260 148 273 317 332 142 133 137 143 132 149 155 135 163 146 149 218 220 202 178 162 161 159 159 159 160 167
226 225 220 218 215 210 205 202 200 199 199 201 201 201 202 202 203 202 200 196 195 195 195 197 197 192 188 184 179 164 152 244 226 240 249 222 210 206 200 201 195 184 185 231 269 280 278 257 250 277 102 172 250 234 247 241 150 213 264 201 274 295 137 276 332 328 155 129 136 149 154 144 122 151 180 151 176 213 214 209 176 163 164 160 156 158 164 171
224 224 221 219 215 209 202 199 199 197 197 198 199 198 198 200 200 201 200 196 194 192 190 191 190 186 183 174 170 173 179 245 249 288 279 207 204 202 199 200 194 185 190 226 249 263 269 234 218 218 184 213 209 225 257 259 159 194 265 296 321 31 131 261 345 345 87 125 154 146 137 139 136 158 175 165 203 210 217 199 159 158 157 154 155 164 172 176
224 222 221 218 213 207 200 197 197 195 195 195 196 195 195 197 197 198 198 196 192 188 186 185 183 182 175 160 157 175 211 235 240 270 264 183 192 194 193 191 190 191 197 215 222 232 258 286 256 214 197 237 198 243 260 254 189 201 239 238 305 32 178 228 48 28 62 89 94 108 116 150 156 140 162 193 199 195 172 114 126 141 146 154 164 171 174 178
223 221 221 219 212 208 202 198 196 193 192 193 193 193 193 194 194 195 195 194 190 186 183 181 181 177 170 158 147 172 218 224 225 258 207 176 176 180 183 185 190 195 197 205 212 219 224 301 259 236 218 248 243 282 258 195 226 219 212 178 141 87 244 137 56 44 59 26 67 104 105 81 190 142 193 205 187 189 135 111 122 134 148 164 170 174 176 179
220 219 220 218 212 207 202 196 194 192 191 191 191 191 190 190 191 191 192 191 187 184 180 179 177 171 165 155 149 196 225 217 209 234 203 176 172 173 179 185 189 189 188 194 203 209 196 194 248 307 280 271 272 276 252 181 210 208 169 128 132 155 237 164 94 106 77 21 77 112 127 47 312 130 234 229 187 170 123 124 139 142 159 172 171 180 181 182
218 217 217 215 208 203 198 193 191 190 189 189 188 188 186 187 188 188 189 187 184 181 177 177 175 169 167 161 174 201 216 200 202 219 200 177 178 178 181 185 185 183 181 187 198 205 206 207 276 335 292 281 290 290 278 211 171 135 133 97 97 128 10 77 107 181 94 53 121 109 116 322 5 102 221 221 180 160 137 145 156 154 167 173 175 184 184 190
216 215 215 215 208 199 196 192 189 189 187 186 185 184 183 184 185 186 186 183 182 179 174 175 174 170 168 176 206 207 189 191 196 203 189 179 182 183 184 183 182 182 180 178 192 205 210 220 307 297 274 323 299 288 284 245 133 132 132 113 295 40 15 222 137 194 130 121 210 121 87 298 281 227 225 188 163 159 145 157 168 167 172 174 178 182 188 196
213 213 213 212 206 199 194 190 187 186 184 183 182 181 180 180 182 183 182 179 180 178 174 172 170 168 167 196 222 215 213 191 187 178 166 174 179 181 184 184 184 186 188 185 189 199 202 210 256 266 292 329 275 268 301 305 125 168 145 124 182 20 309 246 187 146 120 79 256 132 179 266 241 239 236 172 154 147 151 172 178 178 177 179 182 181 191 195
210 210 210 208 203 197 192 188 185 183 182 181 180 177 175 174 175 176 174 175 176 174 173 170 167 165 175 206 214 211 207 186 181 169 159 166 164 163 175 183 187 190 196 195 191 195 196 206 240 268 283 254 257 308 330 345 76 174 201 147 128 147 261 277 203 147 134 271 16 116 196 258 254 261 255 193 164 151 169 191 189 189 188 186 187 185 193 194
206 207 208 205 201 195 189 185 184 181 179 179 176 172 170 168 170 170 168 171 173 173 170 168 168 160 161 235 218 196 189 180 180 170 163 162 152 150 169 176 183 189 197 194 184 187 193 203 224 245 266 255 239 317 332 347 348 160 188 245 246 165 253 307 276 168 154 222 93 126 207 264 262 269 260 179 165 163 179 196 197 197 198 195 196 192 194 199
203 204 204 201 197 191 185 182 182 178 175 174 170 167 164 161 162 163 164 165 165 169 164 164 174 164 142 213 189 177 177 181 182 170 166 166 158 156 163 165 169 180 191 183 171 177 186 193 201 206 241 252 186 173 100 342 294 279 163 203 212 175 233 302 295 230 168 150 197 192 211 258 270 272 275 156 159 167 180 201 205 201 204 200 199 198 196 199
200 200 198 196 193 187 181 179 178 175 171 168 163 158 155 153 153 153 155 155 155 158 156 161 171 152 2 185 164 179 181 177 177 168 166 171 166 157 150 148 153 162 166 153 155 167 175 184 178 183 203 201 195 153 159 213 228 262 147 173 223 178 176 221 284 268 166 139 204 214 218 243 272 280 262 236 169 165 184 207 213 207 207 205 199 198 198 197
197 197 195 193 190 184 179 175 174 171 165 161 156 150 147 145 145 144 142 142 141 138 132 153 163 146 243 203 186 183 171 166 169 166 165 167 167 160 152 148 149 144 136 132 160 167 164 184 173 182 199 196 208 170 176 212 192 189 172 174 245 188 180 198 233 229 166 153 200 193 234 251 264 280 256 257 205 177 203 214 215 213 208 208 202 197 198 200
193 195 194 191 187 181 177 173 170 166 158 153 147 139 135 132 134 138 140 142 143 144 148 176 179 172 200 194 186 163 159 161 161 162 164 163 161 158 149 145 148 143 143 161 194 182 158 119 167 193 203 200 207 180 183 207 182 176 182 180 190 189 210 212 231 234 166 152 202 195 221 243 253 266 259 257 226 196 225 234 229 226 217 212 205 202 202 203
191 192 191 188 183 178 175 171 165 159 154 146 137 131 129 129 130 139 154 163 179 185 174 179 183 170 71 156 148 135 146 152 152 163 168 163 154 147 134 131 143 157 166 166 177 184 159 158 198 199 188 192 199 184 194 217 199 179 184 193 194 182 216 239 248 281 132 137 223 217 224 250 252 254 256 251 224 214 232 238 237 232 225 216 206 207 206 208
189 190 189 183 177 174 171 166 161 158 155 148 142 138 148 154 157 171 168 179 202 211 188 177 186 215 91 141 141 136 135 133 136 165 168 161 152 145 145 146 149 177 184 161 154 157 168 187 203 189 179 188 195 198 212 232 235 192 187 197 208 195 210 255 235 279 48 127 245 253 239 258 259 254 261 244 207 221 222 218 229 228 227 224 209 211 213 215
187 189 187 180 173 170 166 160 158 157 154 151 152 159 168 159 153 159 154 148 204 225 287 179 193 238 117 149 152 145 132 116 139 172 170 163 160 157 161 159 159 173 174 154 146 153 183 203 202 188 187 187 198 212 220 231 220 167 166 177 207 210 185 313 326 320 42 128 263 331 238 257 265 260 262 241 213 223 215 208 216 216 220 225 214 216 219 221
185 184 182 178 171 165 163 159 158 156 154 157 163 172 165 161 135 141 139 80 186 217 289 184 195 225 148 163 161 151 145 156 160 184 179 166 169 168 152 158 167 166 167 168 165 166 183 206 203 194 192 187 201 218 216 223 204 140 127 151 199 199 156 214 283 339 38 111 178 36 339 275 272 271 264 242 226 230 218 214 219 211 211 216 211 212 213 213
182 179 175 169 163 160 159 157 157 159 162 165 168 163 162 163 152 148 136 48 163 218 242 188 188 195 186 178 170 163 157 160 158 176 182 170 159 162 156 159 161 165 181 176 164 166 182 192 183 178 191 196 203 218 207 209 237 226 158 149 175 184 164 166 163 111 16 0 60 69 359 302 262 256 257 249 240 246 230 217 227 228 221 220 217 217 215 212
177 176 171 164 158 155 154 153 158 164 166 168 163 155 161 164 159 154 129 62 157 241 207 180 184 194 184 168 172 167 134 138 165 172 179 174 156 150 160 162 163 174 180 167 153 168 200 193 151 163 189 197 199 210 197 185 216 261 219 174 165 164 138 112 119 93 48 336 304 103 31 293 292 269 250 259 268 250 236 217 227 234 230 227 227 226 223 223
173 172 169 164 158 153 151 152 166 165 164 175 164 155 160 163 163 160 114 81 185 168 146 165 181 186 177 170 164 134 124 170 182 160 170 176 169 151 157 162 160 175 172 162 156 177 206 171 146 172 185 188 192 204 198 177 170 236 243 174 138 130 120 127 136 105 108 226 287 97 145 255 316 310 261 270 265 250 242 225 230 231 226 221 223 227 223 225
172 171 168 164 159 156 155 156 165 164 167 179 164 155 160 166 175 184 114 132 209 157 147 169 180 175 172 174 165 146 157 165 120 155 176 180 183 139 156 167 150 167 166 143 176 213 139 136 164 173 173 181 188 200 198 167 149 214 236 138 124 124 133 146 139 116 161 187 337 23 123 208 293 282 271 286 277 275 272 241 238 231 226 224 222 223 217 216
172 169 166 163 163 165 164 155 161 171 173 167 159 155 163 170 184 199 133 172 187 132 147 171 170 166 159 165 168 164 167 146 133 186 192 182 183 104 156 181 158 161 168 150 184 242 129 158 181 169 160 183 192 203 185 150 141 225 204 137 133 134 140 142 119 102 104 113 313 305 112 168 269 273 291 319 268 273 271 247 242 234 228 229 225 224 222 222
166 164 162 161 162 166 164 160 165 170 159 158 157 158 162 164 162 106 164 182 145 126 146 147 160 162 146 159 177 188 144 150 150 174 170 176 204 95 159 182 146 142 136 126 165 214 195 182 185 167 170 187 182 199 182 154 152 203 146 105 81 84 96 96 106 101 63 81 243 259 205 168 270 281 296 319 245 248 255 252 250 248 244 239 237 235 221 209
162 159 159 157 158 160 157 161 165 158 153 155 154 151 143 131 130 158 195 186 131 155 155 146 175 165 154 164 180 177 155 150 110 136 146 168 169 27 133 130 103 114 51 37 112 227 278 227 185 158 179 180 143 96 137 163 149 133 102 78 59 40 42 46 62 90 79 292 251 246 222 165 262 283 250 226 228 219 231 261 268 273 279 231 221 199 167 158
160 158 157 157 159 158 152 156 164 159 157 154 144 131 120 97 191 177 182 160 123 157 162 152 167 156 161 170 173 173 156 107 131 147 159 168 151 189 153 122 92 109 95 59 63 340 0 46 324 310 222 142 105 69 18 37 118 109 97 103 88 19 15 21 1 44 115 251 260 262 252 159 213 264 246 244 262 233 213 233 238 230 204 161 164 165 170 177
158 159 159 159 159 158 155 157 162 159 155 152 139 122 126 147 203 189 161 147 149 183 174 161 167 165 169 172 166 160 144 124 161 162 165 166 170 193 176 167 165 145 158 166 131 20 12 331 282 341 297 153 114 95 31 8 41 87 115 122 107 48 28 25 318 351 210 242 263 285 280 197 229 252 257 268 273 256 225 214 203 194 192 193 189 191 198 200
158 158 158 159 157 156 157 154 155 153 150 146 137 132 163 163 182 178 158 165 173 176 168 163 168 166 165 167 163 158 142 148 173 167 162 157 165 194 208 196 169 145 164 171 125 92 359 308 306 19 311 200 135 139 139 141 89 125 143 137 129 120 93 196 245 271 244 246 264 284 272 251 272 266 247 247 253 248 226 220 204 182 182 193 197 199 203 210
157 157 155 155 154 153 155 154 155 151 146 141 138 168 181 177 178 164 166 188 165 155 156 153 154 156 163 167 165 162 135 143 171 160 156 155 164 194 216 212 179 130 120 153 153 161 164 262 241 170 216 204 172 172 157 151 150 170 170 142 149 159 148 187 203 189 212 246 285 290 264 191 201 260 237 233 256 259 212 214 209 188 193 190 199 210 210 226
154 154 149 144 148 153 157 157 156 149 145 145 161 177 183 178 175 163 168 177 146 145 145 145 147 151 166 168 165 170 144 140 176 160 163 175 180 190 191 196 188 145 134 163 181 167 156 203 266 258 265 180 180 217 144 130 145 229 156 117 164 180 144 149 175 171 166 137 261 240 240 209 205 277 273 251 270 282 249 292 276 226 253 254 228 242 237 238
149 147 141 137 143 155 160 159 155 150 148 158 171 189 196 178 170 162 162 159 151 146 139 144 151 151 162 164 168 182 161 135 168 168 182 188 190 193 183 183 186 166 158 162 159 156 148 189 317 332 335 157 175 231 183 136 166 175 125 166 207 165 118 118 172 156 114 137 234 209 249 286 315 296 287 270 251 267 279 277 248 240 255 233 220 236 241 230
145 141 137 139 148 157 162 160 155 151 153 168 180 195 192 179 166 143 140 140 141 141 140 148 164 161 164 166 174 183 164 141 170 175 179 182 196 199 188 193 189 175 172 160 157 191 146 119 318 3 212 268 215 164 5 22 147 135 160 195 187 109 103 113 135 33 68 177 264 229 218 274 323 275 308 318 237 253 256 243 250 265 259 226 227 239 238 221
138 138 132 139 154 159 162 158 153 151 158 180 193 198 173 161 171 135 128 134 139 146 150 155 170 172 173 170 173 177 164 160 178 176 170 178 209 195 181 194 191 175 180 158 147 188 127 112 305 329 203 266 352 105 134 332 331 147 178 180 124 129 181 137 146 162 145 202 270 282 240 248 205 220 293 288 224 239 243 238 254 267 247 228 236 241 230 205
129 135 130 146 156 158 159 156 150 144 168 185 196 199 165 155 183 144 137 142 145 152 158 159 163 170 177 168 161 169 173 172 172 170 176 184 223 200 178 183 182 173 179 160 151 173 120 120 225 290 276 266 4 103 176 213 335 28 94 144 97 129 170 172 162 153 150 190 241 289 300 257 228 215 216 224 226 223 219 221 231 240 234 225 224 214 196 181
133 131 131 152 156 157 155 150 141 162 190 190 188 193 170 173 186 151 146 146 145 154 161 163 163 159 166 163 154 164 173 166 166 175 193 178 193 211 185 177 166 168 167 147 147 158 108 110 163 269 324 162 193 220 184 179 170 124 152 176 185 105 123 152 173 140 133 156 193 226 267 264 251 212 200 220 230 215 200 199 213 229 230 221 213 194 182 175
139 124 133 155 155 154 150 144 163 185 189 178 167 179 178 161 148 152 151 144 138 125 138 154 162 155 152 156 159 166 159 150 170 178 179 173 169 203 196 176 159 160 151 137 154 161 123 109 135 161 195 188 230 254 202 191 181 165 177 182 180 158 127 152 210 211 127 143 169 175 228 265 256 208 205 222 222 210 199 191 203 223 225 217 201 185 180 167
135 127 142 156 157 155 152 161 188 176 161 168 168 151 156 148 138 152 153 143 140 99 105 137 151 147 149 155 156 161 154 153 176 176 157 175 172 184 196 165 151 157 154 147 169 153 109 103 112 137 192 207 255 273 225 198 161 188 212 188 176 171 141 153 195 203 153 167 156 142 219 266 260 226 219 222 209 201 197 188 190 207 208 191 162 160 159 147
140 112 128 153 162 164 162 168 170 161 189 195 166 92 140 139 138 151 154 149 148 134 130 141 151 152 159 156 151 158 158 152 175 171 129 149 179 213 189 157 150 157 159 159 175 146 91 96 106 88 321 296 306 317 346 23 80 230 243 185 164 196 146 141 179 170 157 182 157 143 246 266 271 256 234 230 212 184 180 173 169 179 196 182 164 158 152 145
130 91 108 155 170 179 182 173 168 176 191 168 118 121 126 114 141 155 158 155 151 144 144 146 155 154 147 150 155 164 165 157 170 170 127 145 181 300 142 161 158 160 172 180 172 159 105 123 125 106 77 356 338 331 309 267 202 231 246 178 168 195 129 110 125 104 139 202 158 149 237 253 265 288 337 339 342 80 219 203 166 169 189 193 184 174 166 156
129 92 61 154 173 190 213 187 173 170 168 141 138 153 135 82 126 149 148 153 146 131 138 146 145 124 113 135 141 158 167 157 157 172 140 132 165 352 356 175 168 168 179 162 149 141 130 157 151 136 153 180 195 218 225 196 170 212 216 186 184 188 174 161 124 114 200 217 153 171 230 236 260 34 24 335 313 256 243 244 222 196 195 195 190 182 174 166
138 126 118 139 186 262 292 249 170 166 166 149 149 160 138 130 80 12 122 149 173 117 117 137 132 111 123 142 136 160 176 131 101 162 154 139 164 331 345 158 155 160 156 145 145 132 112 167 186 175 183 184 178 190 144 127 148 196 194 176 181 187 174 149 126 168 192 166 174 220 236 233 173 120 215 241 228 223 228 223 218 215 208 201 194 185 174 162
141 161 162 152 165 192 228 274 205 183 176 165 162 165 148 145 150 63 69 137 182 131 91 115 147 142 155 155 147 167 174 124 111 155 147 135 160 339 34 74 65 61 124 144 153 124 114 197 204 188 194 175 148 155 139 137 170 194 176 157 174 170 152 158 198 205 149 113 225 236 235 241 229 189 204 222 215 218 224 214 211 206 199 195 182 168 159 152
152 176 185 161 156 179 194 205 198 186 175 168 159 145 144 148 156 160 130 65 163 146 85 129 170 165 162 159 153 160 161 134 140 156 141 129 141 101 27 45 39 9 89 135 142 103 137 202 202 178 189 164 135 157 154 153 175 183 169 171 175 165 165 187 216 214 156 170 232 229 210 236 236 194 204 220 208 214 221 213 205 180 173 178 163 156 159 160
125 138 196 333 22 157 149 150 166 171 170 164 151 152 157 160 164 164 133 110 153 188 123 151 176 171 161 160 151 153 166 162 161 170 152 136 139 120 83 81 40 18 72 122 145 104 154 196 181 160 173 188 188 180 163 152 151 166 182 183 174 175 187 198 215 216 194 211 239 242 232 258 249 201 209 226 212 220 220 134 151 172 174 174 165 162 168 174
131 139 167 95 91 131 114 99 128 157 169 160 155 171 167 163 165 164 143 148 162 187 166 160 170 169 161 162 155 166 182 171 161 169 156 138 146 155 145 163 168 60 74 133 156 55 166 198 166 139 151 218 224 196 161 149 150 166 192 193 185 189 199 208 218 216 202 231 253 278 303 275 260 168 195 225 204 188 137 159 204 203 176 162 167 175 180 185
261 247 172 135 127 139 137 135 143 155 171 174 170 176 175 174 170 156 134 166 164 168 171 160 157 147 146 160 164 174 182 166 157 168 163 156 166 174 167 169 159 141 133 159 156 129 157 185 132 120 152 233 227 176 145 117 122 156 201 202 198 199 203 212 216 200 183 218 242 253 254 259 245 145 185 206 166 167 193 211 222 217 180 166 178 191 192 191
346 323 78 110 102 144 151 148 152 167 181 184 174 169 170 175 168 150 136 359 102 149 155 150 147 138 146 173 186 183 173 158 154 162 158 151 156 152 138 158 159 157 158 157 152 146 147 153 148 143 169 241 247 154 130 95 94 222 227 204 196 200 205 211 221 211 201 205 216 229 236 236 162 157 191 165 153 187 209 212 215 215 200 185 188 195 194 190